CDT,Max TemperatureF,Mean TemperatureF,Min TemperatureF,Max Dew PointF,MeanDew PointF,Min DewpointF,Max Humidity, Mean Humidity, Min Humidity, Max Sea Level PressureIn, Mean Sea Level PressureIn, Min Sea Level PressureIn, Max VisibilityMiles, Mean VisibilityMiles, Min VisibilityMiles, Max Wind SpeedMPH, Mean Wind SpeedMPH, Max Gust SpeedMPH,PrecipitationIn, CloudCover, Events, WindDirDegrees
2013-7-1,73,65,57,59,50,39,77,56,45,30.17,30.14,30.08,10,10,10,12,6,16,0.00,0,,27
2013-7-2,71,62,53,54,45,37,82,56,29,30.18,30.15,30.11,10,10,10,13,7,17,0.00,2,,63
2013-7-3,71,64,57,57,53,46,94,69,46,30.13,30.09,30.04,10,10,10,8,3,,0.01,7,,101
2013-7-4,75,68,60,64,60,55,94,76,57,30.08,30.04,30.01,10,8,2,20,7,25,0.00,4,,192
2013-7-5,82,72,62,66,61,55,94,68,48,30.06,30.02,29.99,10,9,5,21,9,25,0.00,0,,191
2013-7-6,84,74,64,66,61,55,83,66,48,30.03,30.00,29.95,10,10,10,21,10,24,0.00,0,,194
2013-7-7,82,74,66,72,67,63,88,77,65,29.97,29.94,29.91,10,10,8,10,7,,0.00,2,,197
2013-7-8,75,70,64,68,65,61,100,87,73,30.01,29.95,29.88,10,9,0,16,8,25,1.42,5,Thunderstorm,73
2013-7-9,73,68,62,70,65,61,100,93,83,30.01,29.91,29.74,10,6,0,14,4,18,0.53,6,Thunderstorm,159
2013-7-10,75,68,59,70,58,54,88,68,47,30.01,29.89,29.76,10,10,8,17,10,24,0.53,2,,310
2013-7-11,75,65,57,57,54,48,88,68,47,30.14,30.09,30.02,10,10,10,14,6,,0.00,1,,294
2013-7-12,77,66,55,61,53,45,88,62,38,30.18,30.14,30.10,10,10,10,10,5,,0.00,0,,164
2013-7-13,80,70,60,66,58,50,94,66,47,30.18,30.16,30.10,10,10,5,16,9,23,0.00,0,,182
2013-7-14,82,72,62,66,63,54,94,71,58,30.26,30.23,30.19,10,10,10,15,7,16,0.00,0,,168
2013-7-15,84,74,64,70,65,61,100,72,51,30.31,30.28,30.25,10,9,2,10,5,,0.00,0,,160
2013-7-16,87,78,69,75,70,64,94,77,58,30.28,30.25,30.20,10,10,8,15,7,18,0.00,1,,195
2013-7-17,89,81,73,75,72,66,94,78,55,30.26,30.21,30.13,10,10,10,18,7,30,0.16,1,Thunderstorm,234
2013-7-18,91,83,75,73,72,70,89,69,52,30.14,29.99,29.82,10,10,10,18,9,24,0.00,0,,227
2013-7-19,89,78,66,72,69,64,94,69,49,29.81,29.73,29.68,10,10,10,24,14,30,0.12,2,,248
2013-7-20,69,64,59,64,54,48,100,67,46,30.03,29.92,29.80,10,10,9,17,6,21,0.01,2,,40
2013-7-21,66,60,55,57,53,46,94,78,67,30.06,30.01,29.93,10,10,7,8,5,,0.10,6,,80
2013-7-22,78,66,55,70,64,54,100,84,69,29.94,29.78,29.60,10,9,2,17,5,26,0.00,2,,176
2013-7-23,69,63,55,63,50,45,78,63,49,30.01,29.87,29.69,10,10,10,20,13,26,0.00,3,,2
2013-7-24,69,60,50,54,49,45,94,66,43,30.10,30.05,30.01,10,10,10,12,4,,0.00,1,,91
2013-7-25,75,65,55,61,54,50,88,67,47,30.06,30.01,29.94,10,10,8,23,10,31,0.00,3,,192
2013-7-26,69,63,55,64,60,54,94,89,77,29.96,29.90,29.83,10,10,3,18,7,26,1.31,5,Thunderstorm,206
2013-7-27,60,56,51,52,46,43,94,74,55,29.92,29.87,29.82,10,10,7,18,11,20,0.05,8,,291
2013-7-28,57,53,51,54,50,46,94,85,72,29.95,29.85,29.80,10,10,6,18,9,26,0.20,8,,298
2013-7-29,69,61,53,57,51,48,88,75,49,30.18,30.10,29.96,10,10,10,17,10,25,0.00,4,,293
2013-7-30,69,60,53,61,54,52,94,76,60,30.22,30.16,30.10,10,10,10,10,6,,0.00,4,,183
2013-7-31,73,66,60,64,61,54,94,82,72,30.10,29.99,29.91,10,10,5,14,7,16,0.00,4,,214